Location: Unspecified
(51.0000°N, 12.0000°E)
Time: 22:47:10
(UTC+01:00)

ISS - Pass Details

Date: 05 December 2020
Orbit: 418 x 419 km, 51.6° (Epoch: 18 January)

Event Time Altitude Azimuth Distance (km) Brightness Sun altitude
Rises 18:58:43 0° 282° (WNW) 2,370 1.2 -25.9°
Reaches altitude 10° 19:01:14 10° 264° (W) 1,501 0.1 -26.3°
Enters shadow 19:03:25 18° 224° (SW) 1,092 -1.2 -26.7°
